FW8055 Weather Reports


time (UTC)temp
F
wind
direction
speed
knots
gust
knots
rain 1hr
in
rain 24hr
in
rain mn
in
humidity
%
barometer
mb
20260831161604 59 33 0.9 2.6 0.00 0.00 0.00 76 1012.1
20260831160110 57 345 0.0 1.7 0.00 0.00 0.00 80 1012.2
20260831154624 56 0 0.0 0.9 0.00 0.00 0.00 84 1012.3
20260831153053 53 0 0.0 0.9 0.00 0.00 0.00 88 1012.3
20260831151553 51 0 0.0 0.0 0.00 0.00 0.00 92 1012.3
20260831150106 49 0 0.0 0.0 0.00 0.00 0.00 94 1012.1
20260831144600 48 0 0.0 0.0 0.00 0.00 0.00 93 1012.1
20260831143054 48 0 0.0 0.0 0.00 0.00 0.00 92 1012.2
20260831141552 48 0 0.0 0.0 0.00 0.00 0.00 92 1012.2
20260831140100 47 0 0.0 0.0 0.00 0.00 0.00 92 1012.1
20260831134605 48 0 0.0 0.0 0.00 0.00 0.00 91 1012.0
20260831133056 48 0 0.0 0.0 0.00 0.00 0.00 91 1012.1
20260831131604 48 0 0.0 0.0 0.00 0.00 0.00 90 1012.0
20260831130106 48 0 0.0 0.0 0.00 0.00 0.00 90 1012.1
20260831124556 49 0 0.0 0.0 0.00 0.00 0.00 90 1012.2
20260831123054 49 0 0.0 0.0 0.00 0.00 0.00 90 1012.3
20260831121600 49 0 0.0 0.0 0.00 0.00 0.00 90 1012.5
20260831120059 49 0 0.0 0.0 0.00 0.00 0.00 90 1012.4
20260831114556 49 0 0.0 0.0 0.00 0.00 0.00 89 1012.4
20260831113056 49 0 0.0 0.0 0.00 0.00 0.00 89 1012.5
20260831111605 50 0 0.0 0.0 0.00 0.00 0.00 88 1012.6
20260831110055 50 0 0.0 0.0 0.00 0.00 0.00 88 1012.5
20260831104600 50 0 0.0 0.0 0.00 0.00 0.00 87 1012.6
20260831103057 51 0 0.0 0.0 0.00 0.00 0.00 86 1012.5
20260831101556 51 0 0.0 0.0 0.00 0.00 0.00 87 1012.8
20260831100116 51 0 0.0 0.0 0.00 0.00 0.00 86 1012.9
20260831094554 52 0 0.0 0.0 0.00 0.00 0.00 85 1013.0
20260831093057 52 0 0.0 0.0 0.00 0.00 0.00 84 1013.1
20260831091557 52 0 0.0 0.9 0.00 0.00 0.00 84 1013.3
20260831090114 53 0 0.0 0.0 0.00 0.00 0.00 83 1013.4
20260831084559 53 0 0.0 0.0 0.00 0.00 0.00 82 1013.5
20260831083109 53 0 0.0 0.0 0.00 0.00 0.00 82 1013.6
20260831081601 54 0 0.0 0.0 0.00 0.00 0.00 81 1013.7
20260831080124 54 0 0.0 0.0 0.00 0.00 0.00 81 1013.8
20260831074602 54 0 0.0 0.9 0.00 0.00 0.00 79 1013.9
20260831073103 55 0 0.0 1.7 0.00 0.00 0.00 79 1014.0
20260831071555 55 0 0.0 0.9 0.00 0.00 0.00 78 1014.2
20260831070051 55 0 0.0 1.7 0.00 0.00 0.00 78 1014.2
20260831064557 56 0 0.0 0.0 0.00 0.00 0.00 77 1014.3
20260831063108 56 0 0.0 0.0 0.00 0.00 0.00 76 1014.3
20260831061555 57 0 0.0 0.0 0.00 0.00 0.00 75 1014.2
20260831060053 57 0 0.0 0.0 0.00 0.00 0.00 73 1014.3
20260831054558 58 0 0.0 0.0 0.00 0.00 0.00 72 1014.4
20260831053125 59 0 0.0 0.0 0.00 0.00 0.00 71 1014.5
20260831051600 60 0 0.0 0.0 0.00 0.00 0.00 69 1014.6
20260831050058 61 0 0.0 0.0 0.00 0.00 0.00 67 1014.7
20260831044639 62 0 0.0 0.0 0.00 0.00 0.00 65 1014.8
20260831043100 64 0 0.0 0.0 0.00 0.00 0.00 62 1014.9
20260831041603 65 0 0.0 0.0 0.00 0.00 0.00 59 1014.9
20260831040056 67 0 0.0 1.7 0.00 0.00 0.00 55 1014.7
20260831034548 69 0 0.0 1.7 0.00 0.00 0.00 52 1014.6
20260831033106 70 0 0.0 5.2 0.00 0.00 0.00 51 1014.6
20260831031600 70 0 0.0 3.5 0.00 0.00 0.00 50 1014.6
20260831030056 71 0 0.0 3.5 0.00 0.00 0.00 48 1014.5
20260831024552 72 0 0.0 4.3 0.00 0.00 0.00 46 1014.5
20260831023059 73 15 0.9 7.0 0.00 0.00 0.00 43 1014.6
20260831021557 73 5 0.9 3.5 0.00 0.00 0.00 38 1014.6
20260831020056 74 331 2.6 8.7 0.00 0.00 0.00 36 1014.6
20260831014553 74 0 1.7 9.6 0.00 0.00 0.00 35 1014.7
20260831013102 75 61 0.9 9.6 0.00 0.00 0.00 36 1014.7
20260831011557 75 351 1.7 5.2 0.00 0.00 0.00 35 1014.8
20260831010118 76 332 0.9 11.3 0.00 0.00 0.00 34 1014.9
20260831004600 76 312 1.7 9.6 0.00 0.00 0.00 34 1015.1
20260831003055 76 248 0.9 7.8 0.00 0.00 0.00 35 1015.3
20260831001604 76 238 1.7 7.0 0.00 0.00 0.00 36 1015.4
20260831000110 76 49 2.6 10.4 0.00 0.00 0.00 36 1015.5
20260830234606 76 22 1.7 7.8 0.00 0.00 0.00 37 1015.7
20260830233056 76 26 2.6 11.3 0.00 0.00 0.00 37 1015.9
20260830231610 76 5 2.6 11.3 0.00 0.00 0.00 37 1016.1
20260830230100 76 360 2.6 10.4 0.00 0.00 0.00 37 1016.3
20260830224554 76 352 1.7 11.3 0.00 0.00 0.00 38 1016.5
20260830223056 76 5 2.6 11.3 0.00 0.00 0.00 37 1016.7
20260830221550 76 300 1.7 7.0 0.00 0.00 0.00 38 1017.0
20260830214603 76 335 0.9 5.2 0.00 0.00 0.00 40 1017.4
20260830213107 75 32 1.7 9.6 0.00 0.00 0.00 41 1017.7
20260830211555 74 324 1.7 10.4 0.00 0.00 0.00 43 1017.9
20260830210105 74 352 1.7 7.8 0.00 0.00 0.00 45 1018.1
20260830204552 73 322 2.6 7.0 0.00 0.00 0.00 45 1018.2
20260830203101 72 252 2.6 7.8 0.00 0.00 0.00 47 1018.4
20260830201603 72 321 1.7 8.7 0.00 0.00 0.00 48 1018.6
20260830200055 71 171 0.9 7.8 0.00 0.00 0.00 50 1018.8
20260830194604 71 5 0.9 7.8 0.00 0.00 0.00 49 1018.9
20260830193058 70 111 0.9 9.6 0.00 0.00 0.00 51 1019.2
20260830191555 69 360 1.7 10.4 0.00 0.00 0.00 53 1019.4
20260830190055 68 349 1.7 7.8 0.00 0.00 0.00 56 1019.7
20260830184602 67 37 1.7 5.2 0.00 0.00 0.00 57 1019.7
20260830183057 66 55 2.6 7.8 0.00 0.00 0.00 60 1019.9
20260830181555 64 58 1.7 7.0 0.00 0.00 0.00 63 1019.9
20260830180055 64 9 1.7 7.0 0.00 0.00 0.00 65 1020.1
20260830174605 62 242 1.7 5.2 0.00 0.00 0.00 65 1020.1
20260830173056 62 29 0.9 6.1 0.00 0.00 0.00 67 1020.0
20260830171554 61 0 0.0 3.5 0.00 0.00 0.00 69 1020.2
20260830170050 59 0 0.9 3.5 0.00 0.00 0.00 72 1020.1
20260830164554 58 350 0.9 4.3 0.00 0.00 0.00 74 1020.2
20260830163050 57 83 0.9 3.5 0.00 0.00 0.00 76 1020.4